Location: Castle
(40.7167°S, 175.9500°E)
Time: 17:55:51
(UTC+00:00)

DMSP B5D2-2 - Pass Details

Date: 04 August 2024
Orbit: 787 x 802 km, 98.3° (Epoch: 18 September)

Event Time Altitude Azimuth Distance (km) Brightness Sun altitude
Rises 17:15:44 0° 172° (S) 3,352 7.4 -23.4°
Reaches altitude 10° 17:18:07 10° 175° (S) 2,413 6.6 -23.0°
Maximum altitude 17:23:21 58° 252° (WSW) 942 4.1 -22.0°
Enters shadow 17:26:15 26° 321° (NW) 1,548 5.3 -21.5°
